Location: Limerick
(52.6650°N, 8.6230°W)
Time: 01:32:18

N. Korean satellite - Visible Passes

Search period start: 23 March 2018 00:00
Search period end: 02 April 2018 01:00
Orbit: 460 x 512 km, 97.2° (Epoch: 22 March)

Date Brightness Start Highest point End Pass type
(mag) Time Alt. Az. Time Alt. Az. Time Alt. Az.
23 Mar 10.4 19:44:28 10° WSW 19:45:42 11° W 19:46:56 10° WNW visible
27 Mar 10.4 20:42:23 10° WSW 20:43:49 12° W 20:45:17 10° WNW visible
31 Mar 10.3 20:40:17 10° WSW 20:41:54 12° W 20:43:31 10° WNW visible
